Weather History for Lee's Summit, MO

Change the Weather History Date:

Sunday, November 25, 2012

  Actual Average (KMKC) Record (KMKC)
Temperature  
Mean Temperature 46 °F -  
Max Temperature 55 °F 49 °F 64 °F (1998)
Min Temperature 37 °F 33 °F 21 °F (1996)
Degree Days  
Heating Degree Days 19    
Moisture  
Dew Point 26 °F    
Average Humidity 50    
Maximum Humidity 70    
Minimum Humidity 37    
Precipitation  
Precipitation 0.00 in - - ()
Sea Level Pressure  
Sea Level Pressure 29.96 in    
Wind  
Wind Speed 9 mph (NW)    
Max Wind Speed 13 mph    
Max Gust Speed 22 mph    
Visibility 10 miles    
Events      
Averages and records for this station are not official NWS values.
T = Trace of Precipitation, MM = Missing Value Source: NWS Daily Summary

Daily Weather History Graph

Daily Weather History Graph

Search for Another Location

Airport:

Trip Planner

Search our weather history database for the weather conditions in past years. The results will help you decide how hot, cold, wet, or windy it might be!

Date:

Astronomy

Nov. 25, 2012 Rise Set
Actual Time 7:11 AM CST 4:57 PM CST
Civil Twilight 6:42 AM CST 5:26 PM CST
Nautical Twilight 6:09 AM CST 5:59 PM CST
Astronomical Twilight 5:37 AM CST 6:31 PM CST
Moon 3:13 PM CST (11/25) 4:27 AM CST (11/25)
Length of Visible Light 10h 44m
Length of Day
9h 45m
Waxing Gibbous, 93% of the Moon is Illuminated
Nov 25
Waxing Gibbous
Nov 28
Full
Dec 6
Last Quarter
Dec 13
New
Dec 19
First Quarter

Hourly Weather History & Observations

Time (CST) Temp. Windchill Dew Point Humidity Pressure Visibility Wind Dir Wind Speed Gust Speed Precip Events Conditions
12:53 AM 45.0 °F 38.9 °F 23.0 °F 42% 29.91 in 10.0 mi SW 12.7 mph 21.9 mph N/A   Clear
1:53 AM 45.0 °F 39.3 °F 23.0 °F 42% 29.91 in 10.0 mi SW 11.5 mph - N/A   Clear
2:53 AM 43.0 °F 38.2 °F 23.0 °F 45% 29.93 in 10.0 mi WSW 8.1 mph - N/A   Clear
3:53 AM 42.1 °F 37.7 °F 23.0 °F 47% 29.92 in 10.0 mi SW 6.9 mph - N/A   Clear
4:53 AM 41.0 °F 34.3 °F 23.0 °F 49% 29.91 in 10.0 mi SW 11.5 mph - N/A   Clear
5:53 AM 39.0 °F 33.4 °F 23.0 °F 53% 29.93 in 10.0 mi SW 8.1 mph - N/A   Clear
6:53 AM 39.0 °F 34.8 °F 23.0 °F 53% 29.94 in 10.0 mi WSW 5.8 mph - N/A   Clear
7:53 AM 37.9 °F 33.5 °F 24.1 °F 57% 29.96 in 10.0 mi WSW 5.8 mph - N/A   Clear
8:53 AM 43.0 °F 38.8 °F 25.0 °F 49% 29.96 in 10.0 mi WSW 6.9 mph - N/A   Clear
9:53 AM 46.0 °F 43.9 °F 25.0 °F 44% 29.97 in 10.0 mi West 4.6 mph - N/A   Clear
10:53 AM 50.0 °F - 26.1 °F 39% 29.97 in 10.0 mi North 4.6 mph - N/A   Clear
1:53 PM 55.0 °F - 28.9 °F 37% 29.92 in 10.0 mi NE 8.1 mph - N/A   Clear
2:53 PM 55.0 °F - 28.9 °F 37% 29.92 in 10.0 mi NE 9.2 mph - N/A   Clear
3:53 PM 54.0 °F - 30.9 °F 41% 29.94 in 10.0 mi ENE 8.1 mph - N/A   Clear
4:53 PM 51.1 °F - 30.9 °F 46% 29.95 in 10.0 mi ENE 8.1 mph - N/A   Clear
5:53 PM 46.9 °F - 30.0 °F 52% 29.97 in 10.0 mi ENE 6.9 mph - N/A   Clear
7:53 PM 42.1 °F 36.6 °F 30.0 °F 62% 30.01 in 10.0 mi NE 9.2 mph - N/A   Clear
8:53 PM 39.9 °F 33.9 °F 28.9 °F 65% 30.03 in 10.0 mi NE 9.2 mph - N/A   Clear
9:53 PM 39.9 °F 32.9 °F 28.0 °F 63% 30.03 in 10.0 mi NE 11.5 mph - N/A   Clear
10:53 PM 37.0 °F 29.8 °F 28.0 °F 70% 30.05 in 10.0 mi NE 10.4 mph - N/A   Clear